Temp
-7 -7 -7 -7 -7 -7 -7 -7 -8 -8 -8 -7 -7 -8 -8 -8 -8 -8 -8 -9 -9 -9 -9 -9 -9 -9 -9 -8 -8 -8 -8 -8 -8 -9 -9 -8 -8 -8 -8 -8 -8 -8 -8 -8 -8 -8 -8 -8 -8 -8 -8 -8 -8 -8 -8 -8 -8 -8 -8 -8 -8 -7 -7 -7 -7 -7 -6 -6 -6 -6 -6 -6 -6 -6
-7 -7 -7 -7 -7 -7 -7 -7 -7 -8 -8 -8 -8 -8 -8 -8 -8 -8 -8 -8 -8 -8 -8 -8 -9 -9 -9 -9 -8 -8 -8 -8 -8 -8 -8 -8 -8 -8 -8 -8 -8 -8 -8 -8 -8 -8 -8 -8 -8 -8 -8 -8 -8 -8 -8 -8 -8 -8 -8 -8 -8 -7 -7 -7 -7 -7 -6 -6 -6 -6 -6 -6 -6 -6
-7 -7 -7 -7 -7 -7 -7 -7 -7 -7 -8 -8 -8 -8 -8 -8 -8 -8 -8 -8 -8 -8 -8 -8 -8 -8 -8 -8 -8 -8 -8 -8 -8 -8 -8 -8 -8 -8 -8 -8 -8 -8 -8 -8 -8 -7 -7 -7 -7 -7 -8 -8 -8 -8 -8 -8 -8 -8 -8 -8 -7 -7 -7 -7 -7 -7 -6 -6 -6 -6 -6 -6 -6 -6
-7 -7 -7 -7 -7 -7 -7 -7 -7 -7 -7 -7 -7 -7 -8 -8 -8 -8 -8 -8 -8 -8 -8 -8 -8 -8 -8 -8 -8 -8 -8 -8 -8 -8 -8 -8 -8 -8 -8 -8 -8 -8 -7 -7 -7 -7 -7 -7 -7 -7 -7 -7 -7 -8 -7 -7 -7 -8 -8 -8 -7 -7 -7 -7 -7 -7 -6 -6 -6 -6 -6 -6 -6 -6
-7 -7 -7 -7 -7 -7 -7 -7 -7 -7 -7 -7 -7 -7 -7 -7 -8 -8 -8 -8 -8 -8 -8 -8 -8 -7 -7 -7 -7 -7 -8 -8 -8 -8 -8 -8 -8 -8 -8 -7 -7 -7 -7 -7 -7 -7 -7 -7 -7 -7 -7 -7 -7 -7 -7 -7 -7 -7 -8 -8 -7 -7 -7 -7 -7 -7 -7 -6 -6 -6 -6 -6 -6 -6
-7 -7 -7 -7 -7 -7 -7 -7 -7 -7 -7 -7 -7 -7 -7 -7 -8 -8 -8 -8 -8 -7 -7 -7 -7 -7 -8 -8 -7 -8 -8 -8 -8 -7 -7 -8 -8 -7 -7 -7 -7 -7 -7 -7 -7 -7 -7 -7 -7 -7 -7 -7 -7 -7 -7 -7 -7 -7 -7 -8 -8 -7 -7 -7 -7 -7 -7 -6 -6 -6 -6 -6 -6 -6
-6 -6 -6 -7 -7 -6 -7 -7 -7 -7 -7 -7 -7 -7 -7 -7 -7 -8 -8 -8 -8 -7 -7 -7 -7 -7 -8 -8 -7 -7 -8 -8 -7 -7 -7 -7 -7 -7 -7 -7 -7 -7 -7 -7 -7 -7 -7 -7 -7 -7 -7 -7 -7 -7 -7 -7 -7 -7 -7 -7 -7 -7 -7 -7 -7 -7 -7 -7 -6 -6 -6 -6 -6 -6
-6 -6 -6 -6 -6 -6 -6 -6 -6 -7 -7 -7 -7 -7 -7 -7 -7 -7 -7 -7 -7 -7 -7 -7 -7 -7 -7 -7 -7 -7 -7 -7 -7 -7 -7 -7 -7 -7 -7 -7 -7 -6 -7 -7 -7 -7 -7 -7 -7 -7 -7 -7 -7 -7 -7 -7 -7 -7 -7 -7 -7 -7 -7 -7 -7 -7 -7 -7 -7 -6 -6 -6 -6 -6
-6 -6 -6 -6 -6 -6 -6 -6 -6 -6 -6 -6 -6 -6 -7 -7 -7 -7 -7 -7 -7 -7 -7 -7 -7 -7 -7 -7 -7 -7 -7 -7 -7 -7 -7 -7 -7 -7 -7 -7 -6 -6 -6 -7 -6 -7 -7 -7 -7 -7 -7 -7 -7 -7 -7 -7 -7 -7 -7 -7 -7 -7 -7 -7 -7 -7 -7 -7 -7 -7 -6 -6 -6 -6
-6 -7 -7 -6 -6 -6 -6 -6 -6 -6 -6 -6 -6 -6 -6 -6 -6 -6 -7 -7 -7 -7 -7 -7 -6 -7 -7 -7 -6 -6 -7 -7 -6 -7 -7 -6 -7 -7 -7 -6 -6 -6 -6 -6 -6 -6 -7 -7 -7 -7 -7 -7 -7 -7 -7 -7 -7 -7 -7 -7 -7 -7 -7 -7 -7 -7 -7 -7 -7 -7 -7 -6 -6 -6
-6 -6 -6 -6 -6 -6 -6 -6 -6 -6 -6 -6 -6 -6 -6 -6 -6 -6 -6 -6 -7 -7 -7 -7 -6 -6 -6 -7 -6 -6 -6 -6 -6 -6 -7 -6 -6 -6 -6 -6 -6 -6 -6 -6 -7 -7 -7 -7 -7 -7 -7 -7 -7 -7 -7 -7 -7 -7 -7 -7 -7 -7 -7 -7 -7 -7 -7 -7 -7 -7 -6 -6 -6 -6
-6 -6 -6 -6 -6 -6 -6 -6 -6 -6 -6 -6 -6 -6 -6 -6 -6 -6 -6 -6 -6 -6 -6 -6 -6 -6 -6 -6 -6 -6 -6 -6 -6 -6 -6 -6 -6 -6 -6 -6 -6 -6 -6 -6 -7 -7 -7 -7 -7 -7 -7 -7 -7 -7 -7 -7 -7 -7 -7 -7 -7 -7 -7 -7 -7 -7 -7 -7 -7 -6 -6 -6 -6 -6
-6 -6 -6 -6 -6 -6 -6 -6 -6 -6 -6 -6 -6 -6 -6 -6 -6 -6 -6 -6 -6 -6 -6 -6 -6 -6 -6 -6 -6 -6 -6 -6 -6 -6 -6 -6 -6 -6 -6 -6 -6 -6 -7 -7 -7 -7 -7 -7 -7 -7 -7 -7 -7 -7 -7 -7 -7 -7 -7 -7 -7 -7 -7 -7 -7 -7 -6 -6 -6 -6 -6 -6 -6 -6
-6 -6 -6 -6 -6 -6 -6 -6 -6 -6 -6 -6 -6 -6 -6 -6 -6 -6 -6 -6 -6 -6 -6 -6 -6 -6 -6 -6 -6 -6 -6 -6 -6 -6 -6 -6 -6 -6 -7 -7 -6 -6 -7 -7 -7 -7 -7 -7 -7 -7 -7 -7 -7 -7 -7 -7 -7 -7 -7 -7 -7 -7 -7 -7 -7 -7 -6 -6 -6 -6 -6 -6 -6 -6
-6 -6 -6 -6 -6 -6 -6 -6 -6 -6 -6 -6 -6 -6 -6 -6 -6 -6 -6 -6 -6 -7 -7 -7 -7 -7 -7 -6 -6 -6 -6 -6 -6 -6 -6 -7 -7 -7 -7 -7 -7 -7 -7 -7 -7 -7 -7 -7 -7 -7 -7 -7 -7 -7 -7 -7 -7 -7 -7 -7 -6 -6 -6 -6 -6 -6 -6 -6 -6 -6 -6 -6 -6 -6
-6 -6 -6 -6 -6 -6 -5 -5 -5 -5 -6 -6 -6 -6 -6 -6 -6 -6 -6 -6 -6 -6 -7 -7 -7 -7 -7 -7 -6 -6 -6 -6 -6 -6 -7 -7 -7 -7 -7 -7 -7 -7 -7 -7 -7 -7 -7 -7 -7 -7 -7 -7 -7 -7 -7 -7 -7 -7 -6 -6 -6 -6 -6 -6 -6 -6 -6 -6 -6 -6 -6 -6 -6 -6
-6 -6 -6 -6 -5 -5 -5 -5 -5 -5 -5 -5 -5 -5 -6 -6 -6 -6 -6 -6 -6 -6 -6 -6 -6 -6 -6 -6 -6 -6 -6 -6 -6 -6 -7 -7 -7 -7 -7 -7 -8 -7 -7 -7 -7 -7 -7 -7 -7 -7 -7 -7 -7 -7 -7 -7 -7 -7 -6 -6 -6 -6 -6 -6 -6 -6 -6 -6 -6 -6 -6 -6 -6 -6
-6 -6 -6 -6 -6 -5 -5 -5 -5 -5 -5 -5 -5 -5 -6 -6 -6 -6 -6 -6 -6 -6 -6 -6 -6 -6 -6 -6 -6 -6 -6 -6 -6 -6 -6 -7 -7 -7 -7 -7 -8 -7 -7 -7 -8 -8 -7 -7 -7 -7 -7 -7 -7 -7 -7 -7 -7 -7 -6 -6 -6 -6 -6 -6 -6 -6 -6 -6 -6 -6 -6 -6 -5 -5
-7 -6 -6 -6 -6 -6 -5 -5 -5 -5 -5 -5 -5 -5 -5 -6 -6 -6 -6 -6 -6 -6 -6 -6 -6 -6 -6 -6 -6 -6 -6 -6 -6 -6 -6 -7 -7 -7 -7 -7 -7 -7 -7 -7 -7 -8 -8 -7 -7 -7 -7 -7 -7 -7 -7 -7 -7 -7 -6 -6 -6 -6 -6 -6 -6 -5 -5 -5 -5 -5 -5 -5 -5 -5
-6 -6 -6 -6 -6 -6 -6 -6 -5 -5 -5 -5 -5 -5 -5 -5 -6 -6 -6 -6 -6 -6 -6 -6 -6 -6 -7 -6 -7 -7 -6 -6 -6 -6 -6 -6 -6 -6 -7 -7 -7 -7 -7 -7 -6 -7 -8 -7 -6 -6 -7 -7 -7 -7 -7 -7 -7 -7 -7 -6 -6 -6 -6 -6 -5 -5 -5 -5 -5 -5 -5 -5 -5 -5
-6 -6 -6 -6 -6 -6 -6 -6 -6 -5 -5 -6 -5 -5 -5 -5 -6 -6 -6 -5 -5 -5 -6 -6 -6 -6 -7 -7 -7 -7 -6 -6 -6 -5 -6 -6 -6 -6 -6 -6 -7 -7 -7 -7 -6 -6 -7 -7 -6 -6 -6 -6 -6 -7 -7 -7 -7 -6 -7 -6 -6 -6 -5 -5 -5 -5 -5 -5 -5 -5 -5 -5 -5 -5
-6 -6 -6 -6 -6 -6 -6 -6 -6 -6 -6 -6 -6 -6 -6 -6 -6 -6 -6 -5 -5 -5 -5 -6 -6 -6 -6 -6 -6 -6 -6 -6 -6 -5 -6 -6 -5 -5 -5 -6 -6 -6 -7 -7 -6 -5 -6 -6 -6 -6 -6 -6 -6 -6 -6 -6 -6 -6 -6 -6 -6 -6 -5 -5 -5 -5 -5 -5 -5 -5 -5 -5 -5 -5
-7 -7 -6 -6 -7 -7 -7 -7 -6 -6 -6 -6 -6 -6 -6 -6 -6 -6 -6 -6 -6 -6 -6 -6 -6 -6 -6 -6 -6 -6 -6 -6 -6 -6 -6 -6 -5 -5 -5 -5 -6 -6 -7 -7 -6 -5 -5 -6 -5 -5 -5 -5 -6 -6 -6 -6 -6 -6 -6 -6 -6 -6 -5 -5 -5 -5 -5 -5 -5 -5 -6 -6 -6 -6
-7 -7 -7 -7 -7 -7 -7 -7 -7 -7 -7 -6 -6 -6 -6 -6 -6 -6 -6 -6 -6 -6 -6 -6 -6 -6 -6 -6 -6 -6 -6 -6 -6 -6 -6 -6 -6 -5 -5 -5 -6 -6 -6 -7 -6 -5 -5 -5 -5 -5 -5 -4 -5 -6 -6 -6 -6 -6 -6 -6 -6 -6 -5 -5 -5 -5 -5 -5 -5 -5 -5 -5 -6 -6
-7 -7 -7 -7 -7 -7 -7 -7 -7 -7 -7 -7 -6 -6 -6 -6 -6 -6 -6 -6 -6 -6 -6 -6 -6 -6 -6 -6 -6 -7 -7 -7 -6 -6 -6 -6 -6 -6 -6 -6 -6 -6 -6 -6 -6 -6 -5 -5 -5 -5 -5 -4 -4 -5 -5 -6 -6 -6 -6 -6 -6 -5 -5 -5 -5 -5 -5 -5 -5 -5 -5 -5 -5 -6
-7 -7 -7 -7 -7 -7 -7 -7 -7 -7 -7 -7 -6 -6 -6 -6 -6 -6 -6 -6 -7 -6 -6 -6 -6 -7 -7 -7 -6 -6 -6 -6 -6 -6 -6 -6 -6 -6 -6 -6 -5 -5 -6 -6 -6 -6 -6 -6 -5 -5 -5 -5 -5 -5 -5 -5 -6 -6 -5 -5 -5 -5 -5 -5 -5 -5 -5 -5 -5 -5 -5 -5 -5 -5
-8 -8 -7 -7 -7 -7 -7 -7 -7 -7 -7 -7 -7 -6 -6 -6 -6 -6 -6 -7 -7 -7 -7 -7 -7 -7 -7 -7 -6 -6 -6 -6 -6 -6 -6 -6 -6 -6 -6 -6 -5 -5 -6 -6 -6 -6 -6 -6 -6 -5 -5 -5 -5 -5 -5 -5 -6 -6 -6 -5 -5 -5 -5 -5 -5 -5 -5 -5 -5 -5 -5 -5 -5 -5
-8 -8 -8 -8 -7 -7 -7 -7 -7 -7 -7 -7 -7 -6 -6 -6 -6 -6 -7 -7 -7 -7 -7 -7 -7 -7 -7 -7 -7 -7 -7 -7 -7 -6 -6 -6 -6 -6 -6 -6 -5 -5 -6 -6 -6 -6 -5 -5 -5 -5 -5 -5 -5 -5 -5 -5 -6 -6 -6 -6 -6 -6 -6 -5 -5 -5 -5 -5 -5 -5 -5 -5 -5 -5
-8 -8 -7 -8 -8 -8 -7 -8 -8 -7 -7 -7 -7 -7 -6 -6 -6 -6 -7 -7 -7 -7 -7 -7 -7 -7 -7 -7 -7 -7 -7 -7 -7 -7 -7 -6 -6 -6 -6 -6 -6 -6 -6 -6 -6 -6 -5 -5 -5 -5 -5 -5 -5 -5 -5 -5 -5 -6 -6 -6 -6 -6 -6 -6 -5 -5 -5 -5 -5 -5 -5 -5 -6 -6
-8 -8 -8 -8 -8 -8 -8 -8 -8 -8 -8 -7 -7 -7 -7 -7 -6 -6 -7 -7 -7 -7 -7 -7 -7 -7 -7 -7 -7 -7 -7 -7 -7 -7 -7 -7 -7 -6 -6 -6 -6 -6 -6 -6 -6 -6 -6 -5 -5 -5 -5 -5 -5 -5 -5 -5 -5 -5 -6 -6 -6 -6 -6 -6 -6 -5 -5 -5 -5 -5 -5 -5 -5 -6
-8 -8 -8 -8 -8 -8 -8 -8 -8 -8 -8 -8 -8 -7 -7 -7 -7 -7 -7 -7 -7 -7 -7 -7 -7 -7 -7 -7 -7 -7 -7 -7 -7 -7 -7 -7 -7 -7 -6 -6 -6 -6 -6 -6 -6 -6 -6 -6 -5 -5 -5 -5 -4 -4 -4 -4 -5 -5 -6 -6 -6 -6 -6 -6 -6 -6 -6 -5 -5 -5 -5 -5 -5 -6
-9 -8 -8 -8 -8 -8 -8 -8 -8 -8 -8 -8 -8 -7 -7 -7 -7 -7 -7 -7 -7 -7 -7 -7 -7 -7 -7 -7 -7 -7 -7 -7 -7 -7 -7 -7 -7 -7 -6 -6 -6 -6 -7 -6 -6 -6 -6 -6 -6 -5 -5 -5 -4 -5 -5 -5 -5 -5 -6 -6 -6 -5 -6 -6 -6 -6 -6 -6 -5 -5 -5 -5 -6 -6
-9 -9 -8 -8 -8 -8 -8 -8 -8 -8 -8 -8 -7 -7 -7 -7 -7 -7 -7 -7 -7 -7 -7 -7 -7 -7 -7 -7 -7 -7 -7 -7 -7 -7 -6 -6 -6 -7 -6 -6 -6 -6 -7 -7 -7 -7 -6 -6 -6 -5 -5 -5 -5 -5 -5 -5 -5 -6 -6 -6 -5 -5 -6 -6 -6 -6 -6 -6 -6 -5 -5 -5 -6 -6
-8 -8 -8 -8 -8 -8 -8 -8 -8 -8 -8 -8 -7 -7 -7 -7 -7 -7 -7 -7 -7 -7 -7 -7 -7 -7 -7 -7 -7 -7 -7 -7 -7 -7 -6 -6 -6 -6 -6 -6 -6 -6 -6 -6 -7 -7 -6 -6 -6 -6 -6 -6 -6 -6 -6 -6 -6 -6 -6 -5 -5 -5 -6 -6 -6 -6 -6 -6 -6 -6 -6 -6 -6 -6
-8 -8 -8 -8 -8 -8 -8 -8 -8 -8 -8 -8 -7 -7 -7 -7 -7 -7 -7 -7 -7 -7 -7 -7 -7 -6 -7 -7 -7 -7 -7 -7 -7 -7 -6 -6 -6 -6 -6 -6 -6 -6 -6 -6 -6 -6 -6 -6 -6 -6 -6 -6 -6 -6 -6 -6 -6 -6 -5 -5 -5 -5 -6 -6 -6 -6 -6 -6 -6 -6 -6 -6 -7 -7
-9 -8 -8 -8 -8 -8 -8 -8 -8 -8 -8 -8 -8 -8 -7 -7 -7 -7 -7 -7 -7 -7 -7 -7 -7 -6 -6 -6 -6 -7 -7 -7 -7 -7 -6 -6 -6 -6 -6 -6 -6 -6 -6 -6 -6 -6 -6 -6 -5 -5 -6 -6 -6 -6 -6 -7 -7 -6 -5 -5 -6 -6 -6 -6 -6 -6 -6 -7 -7 -7 -7 -7 -7 -7
-9 -9 -9 -9 -8 -8 -8 -8 -8 -8 -8 -8 -8 -8 -8 -8 -7 -7 -7 -7 -7 -7 -7 -7 -7 -7 -6 -6 -6 -6 -6 -7 -7 -7 -7 -6 -6 -6 -6 -6 -6 -6 -6 -6 -6 -6 -6 -6 -6 -6 -5 -5 -5 -5 -6 -6 -7 -6 -6 -6 -6 -6 -7 -7 -7 -7 -7 -7 -7 -7 -7 -6 -6 -7
-9 -9 -9 -9 -9 -9 -8 -8 -8 -8 -8 -8 -8 -8 -8 -8 -8 -8 -8 -7 -7 -7 -7 -7 -7 -7 -7 -7 -7 -6 -6 -7 -7 -7 -7 -7 -7 -6 -6 -6 -6 -6 -6 -6 -6 -6 -6 -6 -6 -6 -5 -5 -5 -5 -5 -6 -6 -7 -6 -6 -6 -7 -7 -7 -7 -7 -7 -7 -7 -7 -7 -7 -7 -7
-9 -9 -9 -9 -9 -9 -8 -8 -8 -8 -8 -8 -8 -8 -8 -8 -8 -8 -8 -8 -8 -8 -7 -7 -7 -7 -7 -7 -7 -7 -7 -7 -7 -7 -7 -7 -7 -7 -7 -6 -6 -6 -6 -6 -6 -6 -6 -6 -6 -6 -6 -5 -5 -5 -5 -5 -6 -7 -7 -7 -7 -7 -7 -7 -7 -7 -7 -7 -7 -7 -7 -7 -7 -7
-9 -9 -9 -9 -9 -9 -8 -8 -8 -8 -8 -8 -8 -8 -8 -8 -8 -8 -8 -8 -8 -8 -8 -8 -7 -7 -7 -7 -7 -7 -7 -7 -7 -7 -7 -6 -7 -7 -7 -7 -7 -7 -6 -6 -6 -6 -7 -6 -6 -6 -6 -5 -5 -5 -5 -5 -5 -6 -7 -7 -7 -7 -6 -7 -7 -6 -6 -7 -7 -7 -7 -7 -7 -7
-9 -9 -9 -9 -9 -9 -9 -9 -8 -8 -8 -8 -8 -8 -8 -8 -8 -8 -8 -8 -8 -8 -8 -8 -8 -8 -8 -8 -7 -7 -7 -7 -7 -7 -7 -7 -7 -7 -7 -7 -7 -7 -6 -6 -7 -7 -7 -7 -7 -6 -6 -6 -5 -5 -5 -5 -5 -6 -6 -7 -7 -7 -7 -7 -7 -7 -6 -7 -7 -6 -7 -7 -7 -7
-10 -9 -9 -9 -9 -9 -9 -9 -9 -9 -9 -8 -8 -8 -8 -8 -8 -8 -8 -8 -8 -8 -8 -8 -8 -8 -8 -8 -8 -8 -7 -7 -7 -7 -7 -7 -7 -7 -7 -7 -6 -6 -6 -6 -6 -7 -7 -7 -7 -7 -7 -6 -6 -5 -5 -5 -5 -5 -6 -6 -7 -7 -7 -7 -7 -7 -7 -7 -6 -7 -7 -7 -7 -7
-10 -10 -10 -10 -9 -9 -9 -9 -9 -9 -9 -9 -9 -9 -8 -8 -8 -8 -8 -8 -8 -8 -8 -8 -8 -8 -8 -8 -8 -8 -8 -8 -8 -7 -7 -7 -7 -7 -7 -7 -7 -7 -6 -6 -6 -7 -7 -7 -7 -7 -7 -7 -7 -6 -5 -5 -5 -5 -5 -6 -6 -7 -7 -7 -7 -7 -7 -7 -6 -7 -7 -7 -7 -7
-10 -10 -10 -10 -10 -10 -10 -9 -9 -9 -9 -9 -9 -9 -9 -9 -8 -8 -8 -8 -8 -8 -8 -8 -8 -8 -8 -8 -8 -8 -8 -8 -8 -8 -7 -7 -7 -7 -7 -7 -7 -7 -7 -7 -7 -7 -7 -7 -7 -7 -7 -7 -7 -7 -6 -6 -5 -5 -5 -6 -6 -6 -7 -7 -7 -7 -7 -7 -7 -7 -7 -7 -7 -7
-10 -10 -10 -10 -10 -10 -10 -10 -10 -10 -10 -9 -9 -9 -9 -9 -9 -9 -9 -8 -8 -8 -8 -8 -8 -8 -8 -8 -8 -8 -8 -8 -8 -8 -8 -8 -7 -7 -7 -7 -7 -7 -7 -7 -7 -7 -7 -7 -7 -7 -7 -7 -7 -7 -7 -6 -6 -6 -5 -5 -6 -6 -7 -7 -7 -7 -7 -7 -7 -7 -7 -7 -7 -7
Height
5972 5972 5972 5973 5973 5973 5973 5973 5974 5974 5975 5975 5975 5975 5975 5975 5976 5976 5976 5977 5977 5977 5978 5978 5978 5978 5978 5978 5977 5977 5977 5976 5976 5976 5975 5975 5975 5974 5974 5973 5973 5972 5972 5971 5970 5970 5970 5969 5968 5968 5967 5966 5965 5964 5963 5962 5961 5961 5960 5959 5958 5957 5957 5956 5956 5955 5955 5955 5954 5954 5953 5953 5952 5951
5971 5972 5972 5972 5973 5973 5973 5973 5974 5974 5974 5974 5974 5975 5975 5975 5976 5976 5976 5976 5977 5977 5977 5978 5978 5978 5978 5977 5977 5977 5976 5976 5976 5975 5975 5975 5975 5974 5974 5973 5973 5972 5972 5971 5970 5970 5970 5969 5969 5968 5967 5966 5965 5964 5964 5963 5962 5961 5960 5959 5959 5958 5957 5957 5956 5956 5955 5955 5955 5955 5954 5954 5953 5952
5971 5971 5972 5972 5972 5972 5973 5973 5973 5973 5973 5973 5974 5974 5974 5975 5975 5976 5976 5976 5976 5976 5977 5977 5977 5977 5977 5977 5977 5976 5976 5976 5975 5975 5975 5975 5975 5974 5974 5973 5973 5972 5972 5971 5970 5970 5969 5969 5968 5968 5967 5966 5966 5965 5964 5963 5963 5962 5961 5960 5959 5958 5958 5957 5956 5956 5956 5955 5955 5955 5955 5955 5954 5953
5970 5971 5971 5972 5972 5972 5972 5973 5973 5973 5973 5973 5973 5974 5974 5974 5975 5975 5976 5976 5976 5976 5976 5976 5976 5976 5976 5976 5976 5976 5976 5975 5975 5975 5974 5974 5974 5974 5973 5973 5972 5972 5971 5970 5970 5969 5969 5969 5968 5968 5967 5967 5966 5965 5964 5964 5963 5962 5961 5960 5960 5959 5958 5957 5957 5956 5956 5955 5955 5955 5955 5955 5955 5954
5970 5970 5971 5971 5971 5972 5972 5972 5973 5973 5973 5973 5973 5973 5974 5974 5975 5975 5975 5975 5975 5975 5975 5975 5975 5976 5976 5976 5976 5976 5976 5975 5975 5974 5974 5974 5974 5973 5973 5972 5972 5971 5971 5970 5970 5969 5969 5969 5968 5968 5967 5967 5966 5965 5965 5964 5963 5962 5962 5961 5960 5959 5959 5958 5957 5956 5956 5955 5955 5955 5955 5955 5955 5955
5969 5970 5970 5970 5971 5971 5972 5972 5972 5972 5972 5972 5973 5973 5973 5974 5974 5975 5975 5975 5975 5975 5975 5975 5975 5975 5975 5975 5975 5976 5975 5975 5975 5974 5974 5974 5974 5973 5972 5972 5972 5971 5971 5970 5970 5969 5969 5968 5968 5967 5967 5966 5966 5965 5965 5964 5963 5962 5962 5961 5960 5960 5959 5958 5958 5957 5956 5955 5955 5955 5955 5955 5955 5955
5968 5969 5970 5970 5971 5971 5971 5972 5972 5972 5972 5972 5972 5972 5972 5973 5974 5974 5974 5974 5974 5974 5974 5975 5975 5975 5975 5975 5975 5975 5975 5975 5974 5974 5974 5974 5974 5973 5973 5972 5972 5971 5971 5970 5969 5969 5968 5968 5967 5967 5967 5966 5966 5965 5965 5964 5963 5962 5962 5961 5961 5960 5959 5958 5958 5957 5956 5956 5955 5955 5955 5955 5955 5955
5968 5969 5970 5970 5970 5971 5971 5972 5972 5972 5972 5972 5972 5972 5973 5973 5973 5974 5974 5974 5974 5974 5974 5974 5975 5975 5975 5975 5975 5975 5975 5974 5974 5974 5974 5974 5973 5973 5973 5972 5972 5971 5971 5970 5969 5969 5968 5967 5967 5967 5966 5966 5965 5965 5964 5964 5963 5962 5962 5961 5960 5960 5959 5959 5958 5957 5956 5956 5955 5955 5954 5954 5954 5954
5968 5968 5969 5970 5970 5970 5971 5971 5972 5972 5972 5972 5973 5973 5973 5973 5973 5974 5974 5974 5974 5974 5974 5974 5974 5974 5974 5974 5974 5974 5974 5974 5974 5974 5974 5973 5973 5973 5972 5972 5971 5971 5970 5970 5969 5968 5968 5967 5967 5966 5966 5966 5965 5965 5964 5964 5963 5962 5962 5961 5960 5960 5959 5958 5958 5957 5956 5956 5955 5955 5954 5954 5954 5953
5966 5967 5968 5968 5969 5969 5970 5970 5970 5971 5971 5971 5971 5972 5972 5972 5972 5973 5973 5973 5973 5973 5973 5973 5973 5974 5974 5973 5973 5973 5973 5973 5973 5973 5973 5972 5972 5972 5971 5971 5970 5970 5970 5969 5969 5968 5967 5967 5967 5966 5966 5965 5965 5964 5964 5963 5962 5962 5961 5961 5960 5959 5959 5958 5957 5956 5956 5955 5955 5954 5954 5953 5953 5953
5965 5966 5966 5967 5967 5968 5968 5969 5969 5969 5969 5969 5970 5970 5971 5971 5971 5971 5971 5971 5971 5971 5972 5972 5972 5972 5972 5972 5972 5972 5972 5972 5972 5972 5971 5971 5971 5971 5970 5970 5969 5969 5969 5968 5968 5967 5967 5966 5966 5966 5965 5964 5964 5963 5963 5962 5961 5961 5961 5960 5959 5959 5958 5958 5957 5956 5955 5955 5954 5954 5953 5953 5953 5952
5964 5964 5965 5965 5966 5966 5967 5968 5968 5968 5968 5968 5969 5969 5969 5969 5969 5969 5970 5969 5969 5969 5969 5969 5970 5970 5970 5970 5970 5970 5971 5971 5971 5971 5970 5969 5969 5969 5969 5968 5968 5968 5967 5967 5967 5966 5966 5966 5965 5965 5964 5964 5963 5962 5962 5961 5961 5960 5960 5960 5959 5959 5958 5957 5956 5956 5955 5954 5954 5953 5953 5952 5952 5951
5962 5962 5963 5964 5964 5964 5965 5966 5966 5967 5967 5968 5968 5968 5968 5968 5968 5968 5968 5968 5968 5968 5967 5967 5968 5967 5967 5967 5968 5968 5969 5969 5969 5969 5969 5969 5968 5968 5968 5967 5967 5967 5967 5966 5965 5965 5965 5964 5964 5964 5963 5963 5962 5962 5961 5961 5960 5960 5959 5959 5959 5958 5958 5957 5956 5955 5955 5954 5953 5953 5952 5952 5951 5951
5960 5960 5960 5961 5962 5962 5962 5963 5964 5964 5965 5965 5965 5966 5966 5966 5966 5966 5966 5966 5966 5966 5966 5966 5966 5966 5965 5965 5966 5966 5966 5967 5968 5968 5968 5967 5967 5967 5967 5965 5964 5965 5966 5965 5964 5963 5964 5963 5963 5962 5962 5962 5961 5961 5961 5960 5960 5959 5959 5958 5958 5957 5957 5956 5956 5955 5954 5953 5953 5952 5952 5951 5950 5950
5957 5958 5958 5959 5959 5960 5960 5960 5961 5961 5961 5961 5962 5962 5963 5963 5964 5964 5964 5964 5965 5965 5964 5964 5964 5964 5963 5962 5963 5963 5964 5964 5965 5965 5965 5965 5965 5965 5965 5964 5962 5962 5963 5964 5963 5962 5962 5962 5962 5961 5960 5960 5960 5959 5959 5959 5958 5958 5958 5957 5957 5956 5955 5955 5954 5954 5953 5953 5952 5951 5950 5950 5949 5948
5956 5957 5957 5957 5957 5957 5958 5958 5958 5958 5959 5959 5959 5960 5960 5961 5961 5961 5961 5962 5962 5962 5962 5962 5961 5961 5961 5960 5960 5960 5961 5962 5962 5962 5963 5963 5963 5963 5962 5962 5961 5959 5960 5961 5962 5960 5959 5960 5960 5959 5958 5959 5958 5958 5957 5957 5956 5956 5956 5955 5955 5954 5954 5953 5953 5952 5952 5951 5950 5949 5949 5948 5947 5947
5955 5955 5955 5955 5955 5955 5956 5956 5956 5956 5956 5957 5957 5958 5958 5959 5959 5960 5960 5960 5960 5960 5960 5960 5960 5959 5959 5959 5958 5957 5958 5959 5959 5960 5960 5960 5960 5960 5959 5959 5958 5957 5956 5958 5959 5959 5957 5957 5958 5957 5956 5956 5956 5955 5954 5954 5953 5953 5953 5953 5953 5952 5952 5951 5950 5950 5949 5948 5948 5947 5946 5946 5945 5944
5952 5952 5953 5953 5953 5953 5953 5953 5954 5954 5954 5955 5956 5957 5957 5958 5958 5958 5959 5958 5958 5958 5958 5959 5959 5958 5957 5958 5957 5956 5956 5957 5957 5957 5957 5957 5957 5957 5956 5956 5956 5954 5953 5954 5957 5957 5955 5954 5955 5955 5954 5954 5954 5953 5952 5951 5951 5950 5950 5950 5950 5950 5949 5948 5948 5947 5946 5946 5945 5944 5943 5942 5942 5942
5949 5949 5950 5950 5951 5951 5951 5951 5951 5952 5953 5954 5955 5955 5955 5956 5956 5956 5955 5955 5955 5955 5956 5957 5957 5956 5956 5956 5956 5955 5954 5954 5954 5954 5954 5954 5954 5953 5954 5954 5953 5952 5951 5951 5953 5955 5953 5951 5951 5952 5951 5952 5952 5950 5949 5949 5948 5948 5948 5947 5947 5947 5946 5945 5945 5944 5943 5943 5942 5941 5940 5939 5939 5939
5947 5947 5948 5948 5949 5948 5948 5948 5949 5950 5951 5952 5952 5952 5953 5953 5953 5953 5951 5950 5951 5952 5953 5953 5954 5954 5954 5953 5953 5952 5951 5951 5951 5951 5952 5951 5950 5950 5952 5952 5951 5950 5949 5948 5948 5951 5952 5949 5948 5949 5949 5949 5949 5948 5947 5946 5946 5946 5945 5944 5944 5943 5943 5943 5942 5941 5941 5940 5939 5939 5938 5937 5936 5936
5944 5945 5946 5946 5947 5946 5946 5945 5946 5947 5948 5949 5949 5950 5950 5950 5950 5950 5948 5947 5948 5949 5949 5950 5951 5951 5950 5950 5949 5949 5948 5947 5947 5947 5948 5947 5946 5947 5949 5949 5948 5948 5947 5945 5943 5945 5948 5947 5945 5946 5946 5946 5946 5945 5944 5943 5943 5943 5943 5942 5941 5940 5940 5940 5940 5939 5938 5938 5937 5936 5936 5935 5934 5934
5941 5942 5943 5943 5944 5944 5944 5943 5943 5943 5945 5946 5946 5947 5947 5948 5947 5946 5945 5945 5946 5946 5946 5947 5948 5948 5948 5947 5947 5946 5945 5943 5943 5943 5944 5943 5942 5944 5945 5946 5946 5946 5945 5942 5939 5940 5943 5943 5942 5942 5943 5943 5943 5942 5941 5940 5940 5940 5940 5939 5938 5937 5937 5937 5937 5936 5936 5935 5934 5934 5933 5933 5932 5931
5937 5938 5939 5940 5940 5941 5941 5941 5940 5940 5941 5941 5942 5942 5943 5944 5943 5943 5942 5943 5943 5943 5943 5944 5944 5945 5945 5944 5944 5944 5942 5940 5939 5940 5940 5940 5939 5941 5942 5942 5942 5944 5943 5939 5935 5936 5939 5939 5938 5938 5938 5940 5940 5939 5938 5938 5937 5937 5936 5935 5934 5934 5933 5933 5933 5933 5933 5932 5931 5930 5930 5929 5929 5928
5933 5934 5935 5936 5936 5937 5937 5937 5937 5937 5936 5937 5937 5937 5938 5939 5939 5939 5940 5940 5940 5940 5940 5940 5940 5941 5941 5940 5940 5940 5939 5938 5936 5936 5937 5937 5937 5937 5938 5938 5938 5940 5940 5936 5932 5933 5935 5935 5934 5933 5933 5935 5937 5936 5935 5935 5934 5933 5932 5931 5931 5930 5929 5930 5929 5929 5928 5928 5927 5926 5926 5925 5925 5924
5930 5931 5931 5931 5932 5932 5933 5933 5933 5933 5933 5933 5933 5933 5933 5934 5935 5935 5936 5936 5936 5936 5937 5937 5937 5937 5936 5936 5936 5935 5935 5934 5932 5932 5932 5933 5933 5933 5934 5934 5934 5935 5936 5932 5929 5930 5932 5932 5930 5929 5928 5930 5932 5933 5933 5932 5931 5929 5928 5927 5926 5925 5925 5925 5925 5924 5924 5923 5923 5922 5922 5921 5920 5920
5926 5926 5927 5927 5927 5927 5928 5928 5929 5929 5929 5929 5929 5929 5929 5929 5930 5931 5931 5932 5932 5932 5933 5933 5933 5932 5931 5931 5931 5930 5930 5929 5928 5928 5928 5929 5929 5928 5928 5929 5929 5931 5932 5929 5926 5926 5928 5928 5927 5925 5924 5925 5927 5928 5929 5929 5927 5925 5923 5923 5922 5921 5921 5921 5921 5920 5919 5919 5918 5918 5917 5917 5916 5916
5921 5922 5922 5922 5922 5922 5923 5923 5923 5924 5924 5925 5925 5925 5925 5925 5925 5926 5926 5927 5927 5928 5928 5928 5928 5928 5927 5926 5926 5926 5925 5925 5924 5924 5924 5924 5923 5923 5923 5924 5924 5926 5927 5926 5923 5922 5922 5923 5922 5921 5919 5921 5923 5924 5925 5925 5923 5921 5919 5919 5918 5918 5917 5917 5917 5916 5915 5914 5914 5914 5914 5913 5913 5912
5915 5916 5917 5917 5918 5918 5917 5918 5918 5918 5919 5919 5920 5920 5920 5920 5921 5921 5921 5922 5922 5923 5923 5923 5923 5923 5922 5921 5922 5921 5920 5920 5920 5920 5919 5918 5918 5918 5919 5919 5919 5921 5922 5921 5920 5917 5916 5917 5917 5916 5915 5915 5917 5919 5920 5919 5919 5918 5917 5916 5915 5914 5913 5913 5913 5911 5910 5910 5910 5909 5909 5909 5908 5908
5910 5910 5911 5912 5912 5913 5913 5913 5912 5913 5913 5914 5915 5915 5916 5916 5916 5916 5916 5916 5917 5917 5918 5917 5918 5918 5917 5916 5916 5916 5916 5916 5915 5915 5914 5914 5913 5913 5913 5914 5915 5916 5917 5916 5914 5912 5911 5911 5911 5910 5910 5911 5912 5913 5914 5914 5915 5915 5914 5914 5913 5911 5909 5908 5907 5906 5905 5905 5904 5904 5904 5904 5903 5904
5905 5905 5905 5906 5907 5907 5907 5908 5908 5908 5908 5909 5910 5910 5910 5911 5910 5910 5910 5911 5911 5911 5912 5912 5913 5912 5912 5911 5911 5911 5911 5911 5910 5909 5909 5910 5909 5908 5907 5909 5911 5912 5911 5909 5908 5907 5905 5905 5905 5904 5905 5906 5906 5908 5908 5908 5910 5911 5910 5909 5909 5908 5906 5903 5902 5901 5900 5899 5900 5900 5899 5898 5898 5898
5900 5900 5900 5901 5902 5902 5902 5903 5903 5903 5904 5905 5905 5905 5905 5905 5905 5905 5905 5905 5905 5906 5906 5906 5907 5906 5906 5906 5906 5905 5905 5906 5905 5904 5904 5905 5905 5904 5902 5903 5906 5907 5905 5903 5902 5901 5900 5899 5898 5898 5899 5900 5901 5902 5902 5903 5905 5906 5904 5902 5902 5903 5902 5899 5897 5895 5893 5893 5895 5896 5895 5894 5893 5893
5895 5895 5896 5896 5897 5897 5898 5898 5898 5899 5900 5900 5900 5900 5900 5900 5900 5900 5900 5900 5900 5900 5900 5900 5900 5900 5900 5901 5900 5900 5900 5900 5899 5898 5899 5900 5900 5899 5898 5898 5900 5900 5900 5898 5896 5895 5894 5893 5892 5892 5892 5893 5895 5896 5896 5897 5899 5899 5899 5897 5895 5896 5896 5894 5892 5890 5887 5886 5889 5891 5890 5889 5889 5888
5890 5891 5891 5892 5892 5893 5893 5894 5894 5895 5896 5896 5896 5895 5895 5895 5894 5894 5894 5894 5894 5894 5895 5895 5895 5895 5895 5895 5895 5895 5895 5895 5894 5893 5894 5894 5894 5893 5893 5893 5894 5894 5895 5894 5892 5889 5888 5888 5887 5886 5886 5886 5888 5889 5890 5891 5892 5892 5892 5891 5889 5889 5889 5887 5886 5885 5883 5881 5882 5883 5884 5884 5883 5882
5885 5886 5886 5887 5887 5888 5888 5889 5889 5890 5891 5891 5890 5890 5889 5889 5889 5889 5889 5889 5889 5889 5889 5889 5889 5889 5889 5889 5889 5889 5889 5889 5889 5888 5888 5888 5888 5888 5888 5888 5889 5889 5889 5889 5888 5885 5883 5882 5881 5880 5880 5880 5881 5883 5883 5883 5884 5885 5884 5883 5883 5883 5882 5880 5879 5879 5879 5877 5876 5877 5878 5878 5877 5876
5879 5880 5880 5880 5881 5882 5882 5883 5883 5883 5884 5885 5884 5884 5883 5882 5882 5883 5883 5883 5884 5884 5884 5883 5883 5883 5883 5883 5883 5883 5884 5884 5884 5883 5883 5882 5882 5882 5882 5883 5883 5883 5882 5883 5882 5879 5878 5878 5876 5875 5874 5874 5874 5876 5877 5875 5874 5876 5877 5876 5876 5876 5875 5874 5873 5873 5874 5872 5871 5871 5873 5873 5872 5869
5872 5873 5873 5874 5875 5875 5875 5876 5876 5876 5876 5877 5877 5877 5877 5876 5876 5876 5876 5877 5877 5878 5878 5877 5877 5877 5877 5877 5877 5877 5877 5878 5878 5877 5877 5876 5876 5876 5877 5877 5877 5877 5876 5876 5875 5873 5872 5872 5870 5869 5869 5868 5867 5869 5872 5869 5865 5866 5868 5869 5870 5869 5868 5867 5867 5868 5867 5865 5864 5864 5866 5867 5866 5864
5865 5866 5866 5867 5867 5868 5868 5868 5869 5869 5869 5869 5870 5870 5870 5870 5870 5869 5869 5870 5870 5870 5870 5871 5871 5870 5870 5870 5871 5871 5871 5871 5871 5871 5871 5870 5870 5870 5871 5871 5870 5870 5870 5870 5869 5867 5866 5866 5864 5862 5862 5861 5860 5862 5865 5863 5860 5859 5860 5861 5862 5863 5861 5860 5860 5860 5859 5857 5857 5857 5857 5859 5861 5858
5858 5858 5859 5859 5860 5860 5861 5861 5861 5861 5861 5861 5862 5862 5863 5863 5863 5863 5862 5862 5862 5862 5862 5863 5863 5863 5863 5863 5863 5864 5864 5864 5864 5864 5864 5864 5864 5864 5864 5864 5863 5863 5863 5864 5864 5862 5860 5859 5858 5855 5854 5853 5854 5855 5856 5857 5856 5855 5853 5853 5854 5855 5854 5853 5853 5852 5851 5850 5850 5850 5850 5853 5855 5853
5850 5850 5851 5851 5852 5852 5853 5853 5853 5854 5854 5854 5854 5855 5855 5855 5855 5855 5855 5855 5855 5854 5854 5854 5855 5855 5855 5855 5855 5856 5856 5857 5857 5857 5857 5857 5857 5857 5857 5857 5857 5857 5857 5857 5858 5857 5854 5853 5851 5849 5847 5847 5847 5847 5847 5849 5852 5851 5848 5846 5845 5845 5845 5844 5844 5844 5844 5843 5843 5843 5843 5845 5847 5847
5842 5842 5843 5843 5844 5844 5844 5844 5845 5845 5846 5846 5846 5846 5847 5847 5847 5847 5847 5847 5847 5846 5846 5846 5846 5847 5847 5847 5847 5847 5848 5849 5849 5849 5849 5849 5849 5849 5849 5850 5850 5850 5849 5850 5851 5851 5848 5846 5844 5842 5841 5841 5841 5840 5839 5842 5846 5847 5844 5840 5838 5837 5836 5835 5835 5836 5838 5837 5836 5836 5837 5838 5838 5838
5832 5833 5834 5835 5835 5835 5835 5836 5836 5836 5837 5837 5838 5838 5838 5839 5839 5839 5839 5838 5838 5838 5838 5838 5838 5838 5838 5838 5838 5838 5839 5840 5840 5840 5840 5840 5841 5841 5841 5841 5842 5842 5841 5842 5843 5844 5842 5840 5837 5835 5835 5835 5835 5834 5834 5835 5838 5841 5840 5836 5832 5830 5829 5828 5827 5828 5830 5830 5829 5830 5831 5831 5830 5830
5823 5824 5825 5826 5826 5827 5827 5827 5827 5828 5828 5828 5829 5829 5830 5830 5830 5830 5830 5830 5830 5830 5830 5830 5830 5830 5830 5830 5829 5829 5830 5830 5831 5831 5831 5831 5831 5832 5832 5832 5832 5833 5833 5833 5834 5836 5835 5833 5830 5828 5827 5827 5827 5827 5828 5829 5830 5832 5834 5832 5827 5824 5822 5822 5820 5820 5821 5822 5822 5822 5824 5823 5822 5822
5815 5815 5815 5816 5816 5817 5817 5818 5818 5818 5819 5819 5819 5820 5820 5821 5821 5821 5821 5821 5821 5821 5821 5821 5821 5821 5821 5821 5821 5821 5821 5821 5821 5822 5822 5822 5822 5822 5823 5823 5823 5823 5823 5824 5825 5826 5826 5825 5823 5821 5820 5819 5819 5818 5820 5822 5822 5823 5826 5826 5823 5820 5817 5815 5813 5812 5813 5814 5814 5815 5816 5815 5814 5814
5805 5806 5806 5806 5807 5807 5807 5807 5807 5808 5808 5809 5809 5810 5810 5811 5811 5811 5811 5811 5811 5811 5811 5812 5812 5812 5812 5812 5812 5812 5812 5812 5812 5812 5813 5813 5813 5813 5813 5813 5813 5814 5814 5814 5815 5816 5817 5816 5815 5813 5812 5812 5811 5810 5811 5813 5814 5814 5816 5817 5817 5815 5812 5809 5806 5805 5805 5806 5807 5807 5807 5807 5806 5806
5795 5796 5796 5796 5797 5797 5797 5797 5797 5797 5797 5798 5798 5799 5799 5800 5800 5800 5800 5800 5800 5801 5801 5801 5802 5802 5802 5802 5803 5803 5803 5803 5803 5803 5803 5803 5804 5804 5803 5803 5803 5804 5804 5804 5804 5805 5806 5806 5806 5804 5803 5803 5802 5801 5802 5803 5804 5805 5807 5807 5808 5808 5806 5803 5801 5799 5798 5799 5799 5798 5797 5798 5797 5797
Wind_Speed
6 6 6 7 8 8 8 7 7 5 4 3 2 2 2 3 3 4 5 5 5 4 3 3 4 4 4 3 3 3 3 3 4 4 5 6 6 7 8 9 10 10 10 11 12 12 12 12 12 13 13 13 13 13 13 13 13 13 12 10 9 8 7 8 8 8 9 9 9 10 11 11 12 12
7 7 6 7 7 8 8 8 7 6 5 4 4 4 3 3 4 4 5 5 4 4 3 2 3 3 3 4 3 3 3 3 3 4 4 5 5 6 7 8 8 9 9 10 10 11 11 11 11 12 12 12 13 13 13 14 14 13 13 12 10 8 8 7 7 8 8 8 8 8 9 10 10 10
8 7 7 7 7 8 8 8 8 7 7 6 6 6 5 5 5 5 5 5 4 3 3 2 2 2 2 3 3 3 3 3 3 3 4 4 5 5 6 6 7 8 9 9 10 10 11 11 11 11 12 12 12 13 13 14 14 14 14 13 12 10 9 8 8 7 7 7 7 7 7 8 8 8
8 8 8 8 8 8 7 7 7 7 7 7 7 7 6 6 6 6 6 5 4 4 4 3 2 3 3 3 3 3 3 4 5 5 5 5 6 6 6 7 8 8 9 10 10 10 10 10 10 11 11 11 11 12 13 13 14 14 14 14 13 12 11 10 9 8 8 7 7 7 6 6 6 7
8 8 8 8 9 8 8 7 7 7 8 8 8 8 7 7 7 7 7 7 6 5 5 5 4 4 5 5 5 5 5 5 6 7 7 6 6 6 7 7 8 8 8 9 9 9 8 8 8 9 9 9 10 10 11 12 13 14 14 14 14 14 13 11 10 9 8 7 7 7 6 6 5 5
9 9 9 9 9 9 9 9 8 8 9 9 9 9 9 8 8 9 9 9 9 8 8 8 7 7 7 8 7 7 7 7 7 7 6 6 6 7 7 7 7 7 8 8 8 8 8 8 7 7 7 7 7 8 9 11 12 13 13 13 14 15 14 13 12 10 9 8 7 7 6 6 5 4
10 9 9 9 10 10 10 10 10 10 10 10 10 10 10 9 9 9 10 10 10 10 9 8 8 8 7 8 8 7 7 7 7 6 5 5 6 7 8 8 7 8 9 9 9 9 9 9 8 7 7 7 7 7 7 8 10 12 13 13 13 14 15 15 14 13 11 9 8 7 6 6 6 5
10 10 9 10 10 10 10 10 11 11 11 11 11 11 11 10 9 9 10 10 10 10 10 9 8 8 8 8 8 8 8 7 7 6 6 6 6 7 9 9 9 9 10 10 10 9 9 8 8 7 7 7 7 7 7 7 8 9 11 12 13 14 14 15 14 14 13 11 9 8 7 7 6 6
10 11 11 11 11 10 10 10 10 11 11 12 12 12 12 11 11 10 10 10 10 11 10 9 8 8 9 10 9 8 8 8 7 7 8 8 8 9 10 10 10 11 11 10 10 10 9 8 7 7 7 7 7 7 7 7 7 8 9 10 12 13 14 14 14 14 13 12 11 10 9 8 8 7
12 12 12 13 12 11 11 11 11 10 11 11 11 11 11 12 12 11 11 12 12 12 12 11 10 10 10 11 10 9 9 10 9 9 10 10 9 10 11 11 11 12 11 10 11 10 9 8 7 7 8 8 7 7 7 7 7 8 9 9 11 12 13 14 14 14 13 12 11 11 10 10 9 9
13 13 14 14 14 14 13 13 13 12 11 11 11 10 10 11 11 11 11 12 13 13 13 13 13 12 11 11 11 10 10 10 10 10 12 11 10 9 10 11 12 12 12 12 12 11 9 7 7 8 9 9 8 7 7 7 7 8 9 9 10 11 12 12 13 13 13 13 12 12 11 11 11 10
15 15 16 16 16 16 16 15 15 14 14 13 12 12 11 11 11 11 11 12 12 13 13 13 13 14 13 13 12 12 11 10 10 10 11 12 12 11 12 12 12 13 14 14 12 10 8 8 8 9 10 9 9 8 8 8 8 9 9 10 10 11 12 12 13 13 12 13 13 13 12 12 12 12
17 17 17 17 17 17 17 17 17 17 16 16 15 14 14 13 13 13 13 13 13 13 14 14 14 14 15 15 14 14 13 12 12 12 12 12 13 13 14 15 15 14 14 14 13 10 8 8 10 11 11 10 9 9 9 9 10 10 11 12 12 12 12 12 13 13 13 13 13 13 13 13 13 13
18 18 18 19 18 18 18 19 18 18 18 18 18 17 16 15 15 15 15 15 14 15 15 16 15 16 17 18 17 16 16 15 15 15 14 14 14 14 14 17 18 16 13 12 13 12 9 9 11 12 11 11 11 11 11 11 11 12 14 15 15 15 14 14 14 14 14 14 14 14 14 14 13 13
20 20 20 20 20 20 20 20 20 20 20 20 20 19 18 17 17 17 17 16 16 16 17 17 17 17 19 20 19 19 18 17 16 16 16 15 15 15 15 16 19 18 13 10 12 14 13 11 11 13 12 11 13 14 13 13 14 15 16 17 17 17 16 16 15 15 15 15 15 15 15 15 15 14
22 21 21 21 21 21 22 22 22 22 22 22 22 21 20 19 19 18 18 18 18 17 17 18 19 19 19 20 21 20 18 16 16 15 15 15 14 15 14 14 17 19 17 13 11 14 16 12 11 13 14 13 14 16 16 16 17 17 18 19 19 18 17 17 17 16 16 17 17 17 17 16 16 16
23 22 22 22 22 22 22 22 22 23 23 23 23 22 22 21 20 20 20 20 20 20 19 19 20 20 20 20 21 21 19 17 17 16 15 15 14 14 15 15 16 19 20 17 13 14 17 15 13 15 16 14 16 18 19 19 20 20 21 21 21 20 18 17 17 18 18 18 18 18 18 18 18 17
24 24 24 23 23 23 23 23 23 23 23 23 23 22 22 22 22 22 22 22 23 22 22 21 21 22 22 21 22 23 22 20 19 18 17 16 16 16 16 17 18 21 22 21 16 16 20 20 16 17 17 16 18 20 21 22 22 23 23 23 23 22 20 19 18 18 19 19 19 20 20 19 19 19
27 27 26 25 25 25 25 25 25 24 24 23 23 23 23 23 24 24 24 25 25 24 24 23 23 24 24 24 24 24 24 23 22 21 19 19 19 19 17 18 20 22 24 23 20 18 21 23 20 18 19 19 20 22 23 23 24 24 25 26 25 24 22 21 20 20 19 19 20 21 21 21 21 21
29 29 29 28 27 27 27 27 27 26 25 24 24 24 24 25 25 25 27 28 28 27 26 25 24 24 25 26 25 26 26 26 25 23 21 22 23 21 19 19 21 23 25 26 25 21 21 24 22 21 22 21 21 24 25 25 25 25 26 27 27 26 24 23 22 21 21 20 20 20 22 23 23 23
31 30 30 30 29 29 29 29 29 28 27 26 26 26 26 26 26 27 30 31 30 29 28 27 26 26 26 27 27 28 28 28 28 26 24 25 26 24 21 20 22 23 24 27 28 25 23 25 25 23 24 23 23 25 26 26 26 26 27 28 28 27 26 24 24 23 22 21 20 20 21 22 23 24
31 31 31 31 30 30 30 31 31 30 29 27 27 27 26 26 27 29 31 31 31 31 31 29 28 28 28 28 28 29 30 31 30 29 27 28 29 26 24 23 23 23 24 28 31 28 26 27 27 26 25 25 25 27 27 27 27 27 28 29 30 29 27 25 25 25 24 23 21 20 20 21 23 24
31 30 30 30 30 30 31 31 31 31 31 29 29 28 27 27 28 29 30 31 31 32 32 31 30 29 29 29 29 30 31 33 33 32 31 31 30 29 27 27 25 23 24 30 33 30 28 29 29 28 26 25 26 29 29 28 28 29 29 30 31 31 29 27 26 26 26 25 23 21 21 21 22 23
31 31 30 30 30 30 31 31 32 32 33 32 31 31 30 29 29 29 30 30 31 31 31 32 32 31 31 31 30 30 31 33 34 35 34 33 33 32 30 29 29 26 26 31 35 32 30 30 31 32 30 26 26 29 30 30 31 32 32 32 33 32 31 29 29 29 28 27 25 23 22 21 21 22
31 32 32 32 32 32 32 32 33 34 34 34 34 34 33 32 31 30 30 30 31 31 31 32 32 31 32 32 32 32 32 33 35 36 35 33 34 33 32 32 31 29 28 33 36 33 31 31 32 34 34 31 28 28 29 30 33 34 34 34 34 34 32 31 30 31 31 29 27 25 23 22 21 21
31 32 33 34 34 34 34 34 34 35 36 36 36 36 36 35 34 33 32 32 32 32 32 33 32 33 33 34 34 34 34 35 36 36 36 35 34 34 34 33 32 30 29 33 36 35 33 32 32 34 35 33 31 29 28 29 32 34 35 34 35 34 33 32 32 32 32 31 30 28 26 24 22 22
33 33 34 34 35 35 34 34 35 36 36 36 36 37 38 38 37 36 35 35 34 34 34 35 35 35 35 35 35 35 36 36 37 37 37 37 37 36 35 35 34 31 30 32 35 36 35 34 33 35 36 34 31 29 28 28 29 32 33 34 35 35 35 35 34 34 34 33 32 30 28 26 25 23
36 36 37 36 36 36 35 34 35 36 36 36 36 36 36 37 37 38 38 37 37 36 36 37 37 37 38 38 38 38 37 37 37 38 38 39 39 38 37 36 36 34 32 33 34 36 37 36 35 36 36 35 32 29 28 28 28 30 31 33 34 36 37 37 36 36 36 35 33 32 30 28 27 25
34 36 38 39 38 38 37 36 37 38 38 38 37 37 36 36 37 37 38 38 38 38 38 38 38 38 39 40 40 40 40 40 39 40 40 39 39 39 39 38 36 35 35 35 36 37 38 38 37 37 37 35 33 30 28 28 28 29 30 32 33 35 37 38 38 38 37 35 34 32 31 30 29 27
28 30 33 37 38 39 39 39 40 40 40 39 39 38 38 37 37 37 37 38 38 38 38 38 38 39 40 40 40 41 41 41 41 41 41 39 39 40 40 38 36 35 36 37 38 39 40 40 40 40 38 37 35 32 30 29 27 27 30 32 33 34 36 39 40 40 39 37 34 32 31 31 30 29
27 27 28 31 33 34 34 35 36 37 38 38 38 38 38 38 38 38 38 38 38 38 38 38 38 39 40 40 40 41 41 40 41 41 41 39 38 39 40 39 37 36 37 38 39 40 41 41 42 41 41 39 36 34 33 31 28 28 30 33 34 33 34 37 40 41 42 41 36 32 32 32 31 30
30 30 30 30 31 31 31 32 32 33 33 34 34 35 36 37 37 38 38 38 38 37 37 38 38 39 39 40 40 41 41 40 41 41 40 39 38 38 38 38 37 36 37 38 40 41 42 42 43 43 43 41 39 38 36 34 31 31 32 34 36 36 35 37 39 41 44 44 39 36 34 33 32 31
34 34 34 34 34 34 34 34 35 34 34 33 34 35 36 37 37 38 38 38 37 37 37 37 37 37 38 38 39 40 39 40 40 40 39 39 38 38 37 36 36 36 35 35 37 40 41 43 44 45 44 44 42 41 40 38 36 35 35 36 38 39 39 40 40 41 44 45 43 39 37 35 34 33
39 38 38 38 38 38 38 38 39 38 38 37 37 38 39 39 40 40 40 39 39 38 38 37 37 37 37 37 38 39 38 38 38 39 40 40 39 39 38 37 37 37 36 34 35 37 39 40 42 44 45 45 43 42 41 40 39 37 37 38 39 40 41 42 43 43 43 44 44 42 39 38 37 37
43 43 43 43 43 43 43 43 43 43 42 41 41 42 42 43 43 43 43 43 42 41 41 40 40 39 38 38 38 39 39 38 38 38 39 40 40 40 39 38 38 39 39 38 38 39 39 39 40 42 43 44 44 41 40 41 41 40 39 38 39 39 41 42 43 43 43 44 44 42 40 39 39 40
46 46 46 46 46 47 47 47 48 48 47 46 45 45 45 46 46 46 46 46 46 45 45 44 44 43 42 41 40 39 40 40 39 39 40 40 41 41 40 40 40 41 41 40 39 40 40 40 40 41 41 42 43 41 39 41 44 44 41 40 40 40 41 42 42 42 42 43 44 42 40 39 39 41
47 47 47 48 48 48 49 49 50 50 50 50 49 49 49 49 49 49 49 49 50 49 49 48 48 47 47 46 44 42 41 41 40 40 40 40 41 41 41 41 41 42 41 40 39 40 41 41 42 43 43 43 43 41 38 39 42 44 44 43 41 40 41 42 42 42 43 45 45 44 42 40 39 42
49 49 49 49 49 49 49 50 50 51 51 52 51 51 51 51 51 52 52 52 52 53 53 52 51 51 50 50 49 48 46 45 44 43 42 41 41 42 42 42 43 43 42 41 40 39 40 41 42 44 45 45 44 43 40 38 38 40 43 44 43 42 42 42 43 43 44 45 46 45 43 40 38 40
51 51 51 51 51 51 51 51 51 51 51 52 52 52 52 52 52 53 53 54 54 54 55 55 55 54 53 53 53 52 51 50 49 48 46 45 45 44 44 43 44 44 44 43 41 40 41 42 43 45 46 46 45 45 44 41 37 36 39 42 43 43 43 44 44 43 42 43 44 44 43 41 38 39
54 54 54 54 54 54 54 53 53 53 53 53 53 53 53 53 53 54 54 54 55 55 56 56 56 56 56 55 55 54 54 54 53 52 51 50 50 49 49 48 47 47 47 47 45 43 44 45 46 47 47 46 45 46 47 45 39 36 37 40 41 42 43 44 44 42 40 40 42 42 41 41 41 41
57 56 56 56 56 56 56 56 56 55 55 55 55 55 55 55 55 55 55 56 56 56 56 56 57 57 57 57 57 56 55 55 56 56 55 55 54 54 54 53 52 51 51 51 49 48 47 48 49 50 50 48 47 46 46 46 42 38 36 38 41 42 43 44 45 44 41 41 42 42 41 42 43 44
60 59 59 58 58 58 58 58 58 58 58 58 57 57 57 57 57 57 57 58 58 58 58 58 58 58 58 58 58 58 58 57 57 57 57 57 57 57 56 56 56 56 55 55 54 52 52 52 53 54 54 52 51 49 47 46 44 40 37 39 42 44 44 44 45 46 45 44 44 43 42 42 43 44
62 62 62 62 62 61 61 61 61 61 61 61 61 60 60 59 59 59 60 60 60 60 60 60 60 60 60 60 60 60 60 60 59 59 59 59 59 59 58 58 58 58 58 58 57 56 55 56 56 57 57 56 55 54 52 49 47 45 42 40 42 44 46 46 48 48 47 46 46 44 43 43 44 43
65 65 65 65 65 65 65 65 65 65 65 64 64 64 63 63 63 62 62 62 62 62 62 62 62 61 61 62 62 62 62 62 62 62 61 61 61 61 60 60 59 59 59 59 59 58 57 58 58 59 60 59 58 58 57 54 52 51 48 45 43 44 45 47 49 50 49 47 46 45 44 43 44 44
68 68 68 68 68 68 68 68 68 68 68 68 68 68 67 67 67 66 66 66 66 65 65 65 65 64 64 64 64 64 64 64 64 64 64 64 63 63 63 63 62 62 61 61 60 60 59 59 59 60 61 61 61 61 60 59 57 55 54 52 50 48 48 48 49 50 50 48 46 46 46 46 46 47
Wind_Direction
196 196 192 194 198 199 198 197 200 206 216 224 231 232 227 229 233 236 244 261 283 296 297 307 322 331 327 323 329 326 324 328 327 326 330 335 342 348 353 359 3 8 14 20 25 28 30 29 29 32 32 31 31 29 26 24 21 17 15 16 20 23 22 21 21 22 25 29 33 35 34 35 38 42
206 204 198 198 204 208 210 212 212 211 211 217 230 246 259 274 279 277 270 271 290 308 319 335 345 349 339 329 330 325 317 317 316 318 322 328 338 346 354 0 6 14 22 26 29 34 39 39 38 38 36 33 31 27 22 20 18 14 11 10 12 15 14 13 12 14 17 20 26 31 34 36 38 41
216 214 210 207 210 215 217 219 220 219 220 222 226 230 234 244 256 266 271 273 284 298 311 330 333 329 324 314 312 315 316 319 321 322 327 337 346 352 2 12 20 25 30 33 36 40 42 42 40 37 35 32 28 23 18 17 15 13 11 10 10 11 11 7 4 3 4 8 14 22 28 33 37 40
224 224 223 220 221 225 228 229 230 231 233 237 241 240 237 239 244 250 258 264 266 265 268 274 271 278 287 291 300 314 324 329 332 337 344 348 353 359 8 21 27 27 28 31 34 35 34 34 33 31 29 26 22 16 12 12 14 13 11 10 10 11 11 7 2 356 353 354 359 6 16 25 31 37
231 232 233 231 231 232 235 238 239 242 245 249 254 256 254 254 256 258 261 267 271 271 276 282 286 296 309 315 318 321 327 331 330 332 340 346 352 0 10 20 25 23 22 22 22 23 23 22 22 21 20 19 17 12 6 5 9 12 13 11 9 10 12 10 6 358 350 345 346 350 356 6 16 26
238 239 239 241 242 241 242 243 242 244 248 253 258 260 262 263 264 267 271 275 283 291 296 300 306 313 315 315 317 321 326 329 327 330 341 349 353 0 4 9 13 11 8 6 3 2 1 360 3 4 5 6 5 5 1 358 1 5 10 11 8 7 8 10 10 6 356 345 338 337 339 344 351 360
245 248 248 249 252 253 252 252 252 251 252 256 258 261 263 264 263 266 271 276 284 293 299 304 311 316 312 310 315 322 326 327 328 337 353 357 353 354 351 350 354 355 353 348 344 345 345 347 351 356 360 1 359 356 353 352 353 354 358 3 5 4 3 5 7 8 5 354 341 332 329 329 330 331
253 257 260 260 261 262 262 263 263 262 261 262 265 267 270 272 271 270 272 277 284 293 302 308 313 317 319 319 322 326 327 326 329 340 348 347 346 344 339 336 336 339 341 339 336 337 338 340 347 356 5 9 9 5 358 353 350 348 347 350 353 356 357 358 360 2 4 2 352 339 329 323 320 316
260 263 265 266 267 268 267 266 266 267 268 270 271 274 277 280 281 280 281 284 287 291 298 305 308 310 312 316 321 326 326 325 329 336 335 331 331 332 328 325 326 329 333 334 332 332 331 333 341 351 358 3 8 10 5 2 358 354 351 348 346 347 348 349 352 354 358 1 359 351 341 332 324 316
259 261 263 264 266 268 268 266 265 265 268 270 273 274 277 281 285 288 289 290 292 294 297 302 305 306 304 305 311 318 318 318 320 323 320 316 318 321 318 318 321 323 326 327 326 326 324 323 330 337 343 349 354 356 356 357 356 353 352 351 347 344 343 343 345 347 350 354 356 355 349 342 334 327
257 258 260 262 263 265 266 265 264 264 265 266 269 272 274 277 282 286 289 290 291 293 295 298 302 305 303 301 303 308 310 310 310 312 311 309 310 313 312 314 316 317 318 320 321 321 316 311 317 326 334 342 345 345 346 348 349 349 348 348 344 341 339 339 341 343 345 347 349 350 349 345 339 332
259 259 260 262 263 264 266 266 267 267 268 269 271 274 276 277 280 283 285 286 288 290 292 295 298 300 300 299 300 303 305 305 305 306 307 306 308 311 310 308 308 311 314 315 316 315 306 299 308 319 328 337 339 339 343 347 348 348 346 345 342 339 336 335 335 337 339 340 340 341 341 340 338 333
257 257 258 259 260 262 264 266 267 269 271 273 274 276 278 279 279 281 282 282 284 286 288 290 293 294 294 294 296 299 299 300 301 302 302 302 303 305 304 301 300 303 308 308 307 304 295 293 302 311 319 328 329 328 334 340 341 340 339 338 336 333 331 329 328 329 330 331 331 331 332 332 332 330
251 251 252 253 255 257 259 261 263 265 266 268 270 271 274 276 278 279 280 281 283 284 286 287 288 289 289 289 291 292 292 293 295 295 296 297 298 299 298 296 296 297 298 297 296 295 288 287 295 301 308 316 318 319 324 328 330 331 330 329 327 325 322 320 319 319 319 320 320 321 322 322 322 322
246 246 248 249 251 253 255 257 259 260 261 262 263 264 264 267 270 273 275 277 279 281 283 285 285 285 286 287 288 287 287 289 290 290 290 292 294 294 293 292 293 294 292 283 282 287 287 284 287 291 298 307 310 313 317 320 323 325 326 326 324 321 317 314 312 310 309 309 310 311 312 312 312 312
250 250 250 251 252 253 256 257 259 260 262 263 264 264 264 264 264 266 269 272 273 274 275 278 280 281 282 284 286 285 287 289 290 290 290 291 292 291 290 288 287 290 291 285 281 285 287 286 285 288 294 303 306 309 313 317 320 321 322 323 322 319 317 314 311 308 305 303 302 302 302 303 303 303
258 258 257 257 258 258 259 261 262 263 265 266 268 269 271 271 270 270 271 272 273 273 273 274 277 279 280 282 285 288 291 293 293 293 293 293 291 287 285 282 279 282 286 287 288 290 288 288 289 290 294 301 304 306 310 314 315 316 316 317 317 316 315 314 313 310 305 301 298 296 295 295 295 296
262 262 261 261 262 262 263 263 263 264 265 268 270 273 275 276 276 277 277 276 276 277 277 278 278 281 283 284 286 290 294 296 295 294 294 293 289 283 279 277 276 278 282 284 284 286 288 289 290 290 292 298 301 302 305 307 308 309 310 310 311 310 310 311 312 310 306 301 296 292 290 289 289 289
261 262 263 264 265 266 267 267 268 269 271 273 274 275 276 276 276 276 276 275 274 275 275 276 277 279 283 285 286 288 290 292 292 291 291 290 286 280 279 278 277 278 283 285 284 281 284 289 291 290 291 293 295 296 297 298 299 301 303 304 305 305 305 307 309 310 308 303 296 290 287 286 286 286
259 262 264 266 268 269 270 271 271 272 273 274 274 274 274 274 275 274 273 273 273 273 273 273 274 275 278 281 282 283 284 285 285 285 287 285 281 278 279 279 278 280 284 288 288 282 280 285 289 289 289 290 290 290 290 291 292 294 297 299 300 300 301 303 307 309 309 306 300 293 288 286 285 285
261 264 267 269 270 270 271 272 273 273 273 274 274 274 274 275 275 274 273 274 276 276 276 276 275 275 275 276 277 278 279 280 280 280 281 280 278 278 278 276 276 279 284 288 289 286 281 282 285 286 286 287 287 286 286 287 288 290 293 296 297 298 299 302 306 309 310 308 303 297 292 288 285 284
262 265 267 268 270 270 272 273 274 275 275 276 276 275 275 275 274 273 273 276 278 279 280 279 278 277 275 275 276 277 278 279 280 280 280 278 278 280 281 278 276 278 281 282 284 286 284 282 285 285 284 285 286 286 285 286 288 290 293 295 295 296 297 300 304 308 310 309 305 300 297 293 289 285
259 262 265 267 269 271 272 273 275 275 276 275 274 274 273 272 272 272 274 276 278 280 282 282 282 281 280 278 278 277 277 278 279 280 280 280 281 282 283 283 282 281 280 278 279 283 286 285 286 286 284 283 284 286 287 287 289 292 293 294 294 294 296 299 303 306 308 308 305 300 297 295 293 290
259 261 263 265 266 268 269 270 271 272 273 273 273 272 271 270 270 272 274 276 277 279 281 282 284 284 284 283 281 280 279 279 279 279 279 279 281 283 283 283 283 282 281 278 278 281 285 287 287 287 286 285 284 286 288 290 292 293 293 293 293 294 296 299 302 304 305 305 303 298 294 293 293 292
260 262 263 263 264 265 266 267 268 269 271 272 272 272 272 271 271 272 273 274 275 277 278 279 281 282 282 282 281 281 280 280 280 280 281 281 281 282 281 280 280 280 280 279 279 281 284 285 285 286 287 287 287 287 288 291 293 292 291 291 292 293 296 299 300 302 303 303 300 295 291 290 289 288
259 260 261 262 262 262 263 264 266 267 268 269 270 271 271 271 271 271 271 272 274 276 277 278 278 278 277 277 278 278 278 278 279 280 282 283 282 281 280 279 278 278 277 277 280 282 283 283 283 283 284 285 287 288 289 289 289 288 288 289 289 291 293 295 297 298 300 300 299 295 291 288 286 285
260 260 260 261 261 261 261 262 263 264 265 266 267 269 269 270 270 270 270 272 273 275 277 277 277 276 276 276 277 277 276 277 278 280 281 281 281 281 281 281 281 280 278 277 278 280 281 280 280 281 281 282 284 286 287 285 283 283 284 286 287 288 290 292 294 296 298 299 299 297 292 288 285 284
263 262 261 260 260 261 262 263 264 265 265 265 266 266 267 268 268 268 269 270 271 272 273 274 274 275 276 276 277 277 277 277 279 280 280 280 280 280 281 281 282 282 282 280 279 279 278 278 278 278 279 280 281 282 281 280 279 279 280 282 285 286 288 290 293 294 296 299 300 297 293 288 285 283
263 261 258 257 258 261 262 264 265 266 266 267 267 268 268 268 268 268 268 269 270 270 271 271 272 273 274 275 275 276 276 277 278 279 279 280 280 281 281 280 281 283 284 282 280 279 279 279 279 278 278 279 280 279 278 276 275 276 278 279 280 282 285 287 289 290 293 295 296 296 294 290 285 282
261 259 256 254 255 257 259 260 262 264 265 266 267 268 269 270 270 271 271 271 271 271 271 271 272 273 273 274 274 275 274 275 276 276 276 277 279 280 280 281 282 284 283 282 280 280 279 279 279 279 280 280 280 279 277 275 274 274 276 275 274 276 280 282 284 286 287 287 290 293 293 289 284 282
261 262 260 258 256 257 258 260 261 262 262 263 264 266 268 270 272 273 273 273 273 273 273 273 272 272 273 274 274 274 274 274 274 274 273 273 275 277 278 280 282 282 281 280 280 279 279 279 278 279 279 279 280 279 278 277 275 274 274 275 274 273 275 277 280 282 282 283 287 290 289 286 283 280
266 266 266 265 264 264 264 264 264 263 262 262 263 265 267 269 270 271 272 273 274 274 273 273 272 272 272 273 273 273 273 273 273 273 272 272 273 275 276 278 279 279 278 278 279 279 279 279 278 278 279 279 280 280 280 280 279 278 277 277 276 275 274 275 277 279 281 284 287 289 288 286 283 277
265 266 265 265 266 266 266 266 266 266 265 265 265 266 267 269 270 271 271 272 273 273 273 272 272 272 272 272 272 273 273 272 272 272 272 271 272 274 276 277 278 278 276 276 277 278 279 279 279 279 279 280 281 282 282 282 281 280 278 276 276 277 277 277 276 277 279 283 286 287 288 287 283 278
261 262 262 263 263 264 264 264 265 265 265 265 265 266 267 268 269 270 270 271 271 272 273 273 272 272 271 271 270 271 272 272 272 272 272 272 271 272 274 276 278 279 277 276 276 277 278 279 279 279 279 279 280 281 282 282 281 279 277 275 275 276 276 276 276 276 277 279 282 283 285 285 283 279
260 260 260 260 261 261 262 262 263 263 263 263 264 265 266 267 268 268 269 270 270 271 271 272 272 272 271 270 269 270 270 270 271 272 272 272 271 270 271 273 276 278 278 277 278 278 278 278 279 279 279 279 279 279 280 281 280 278 276 275 276 276 275 275 275 276 277 277 278 278 279 279 279 278
261 260 260 260 259 260 260 261 262 263 263 263 263 263 264 266 267 268 268 269 269 269 269 270 270 271 271 270 270 270 270 270 270 270 270 271 271 270 270 271 272 274 276 278 279 279 280 280 279 278 278 278 278 278 277 277 278 279 278 277 277 278 279 278 277 276 275 273 273 273 272 272 273 273
262 262 261 261 260 260 260 260 261 262 263 263 263 263 263 264 265 266 267 268 268 269 269 268 268 269 269 270 270 269 269 269 269 268 268 269 270 270 270 270 271 272 274 276 278 279 280 280 280 280 279 278 278 279 278 276 277 279 280 280 280 281 281 281 279 276 273 271 271 270 270 271 272 272
263 263 262 262 262 261 261 260 260 261 262 262 263 263 263 263 264 264 265 266 267 268 268 268 268 268 268 268 269 268 268 268 267 268 268 268 268 269 269 270 270 271 272 274 276 278 279 279 279 279 279 279 280 281 280 278 278 280 282 283 283 282 281 281 279 276 273 272 272 272 272 273 274 274
263 263 263 263 263 263 262 262 262 261 262 262 263 263 263 263 263 263 264 264 265 266 267 268 268 268 268 268 268 268 268 267 267 267 267 267 267 267 267 268 269 270 271 272 273 275 277 277 277 277 278 279 281 281 281 280 280 281 283 284 284 283 282 280 278 276 273 272 273 274 274 275 274 273
262 263 263 263 264 264 264 264 264 264 263 263 263 263 263 263 263 263 263 264 264 264 265 266 267 268 269 269 268 268 268 268 268 268 267 267 267 267 267 267 267 268 269 270 271 272 273 275 275 276 276 278 279 280 280 281 280 280 281 282 282 282 281 280 279 279 277 275 274 275 276 275 273 272
263 263 263 263 263 264 265 265 265 265 265 264 264 264 263 263 263 263 263 263 264 264 264 265 266 267 268 268 269 269 268 268 268 268 268 268 267 267 267 267 266 266 267 268 269 270 271 272 273 274 275 275 276 276 278 279 279 279 278 279 280 280 279 279 280 280 278 277 278 279 278 275 273 272
263 264 264 264 263 264 264 264 265 265 265 265 265 265 265 265 265 264 264 264 264 264 264 264 265 265 266 267 268 269 269 268 268 268 268 268 268 267 267 267 267 267 266 266 267 268 269 270 271 272 273 273 274 274 274 276 277 277 276 277 278 280 280 280 279 279 279 279 279 279 278 275 274 273
263 264 264 264 265 264 264 264 265 265 265 265 265 266 266 265 265 265 265 265 265 265 265 264 264 264 265 265 266 267 268 268 268 268 267 268 268 268 268 268 268 267 267 267 267 267 267 268 269 270 271 272 273 273 273 273 274 275 274 274 274 276 277 279 279 280 280 281 280 279 277 275 275 276
263 263 264 264 265 265 265 265 265 265 265 265 265 265 265 266 265 265 265 266 266 266 266 265 265 265 265 265 265 265 266 267 267 268 267 267 267 268 268 268 268 268 268 268 267 267 267 267 267 268 270 270 271 272 272 272 271 272 273 273 272 272 273 274 276 278 279 280 281 280 278 276 276 276
262 263 263 263 264 264 264 265 265 265 265 265 265 265 265 265 265 265 265 265 265 265 265 265 266 266 265 265 265 265 265 266 266 266 267 267 267 267 267 267 268 267 267 268 267 267 267 267 267 267 268 269 270 270 271 271 270 271 271 272 272 272 271 271 272 275 277 279 280 280 279 278 278 278